Other Public Products
Issued by NWS Grand Forks, ND

Home | Current Version | Previous Version | Text Only | Print | Product List | Glossary Off
Versions: 1 2 3 4 5 6 7 8 9 10 11 12 13 14 15 16 17 18 19 20 21 22 23 24 25 26 27 28 29 30 31 32 33 34 35 36 37 38 39 40 41 42 43 44 45 46 47 48 49 50

000
FPUS83 KFGF 070831
OPUFGF
PRAIRIE TO PINES WEATHER ROUNDUP
NATIONAL WEATHER SERVICE EASTERN NORTH DAKOTA/GRAND FORKS ND
300 AM CDT TUE JUL 07 2015

 **SATELLITE DATA USED TO AUGMENT SKY COVER AT AUTOMATED STATIONS**
 *****  WEATHER ACROSS EASTERN NORTH DAKOTA  *****

CITY           SKY/WX    TMP DP  RH WIND       PRES   REMARKS
GRAND FORKS    CLEAR     45  43  93 W3        30.16S
GRAND FORKS AF CLEAR     44  43  94 W3        30.17S
GRAND CITY NWS   N/A     45 N/A N/A MISG        N/A
BUXTON         NOT AVBL
DEVILS LAKE    CLEAR     54  45  71 S6        30.18S
FARGO          CLEAR     48  43  82 CALM      30.18R
WAHPETON ARPT  SUNNY     43  41  93 N5        30.18S
$$

 *****  WEATHER ACROSS CENTRAL AND WESTERN NORTH DAKOTA  *****

CITY           SKY/WX    TMP DP  RH WIND       PRES   REMARKS
JAMESTOWN      CLEAR     51  47  86 SW3       30.20R
BISMARCK       CLEAR     51  48  89 NE3       30.20F
MINOT          CLEAR     50  44  80 S5        30.17S
MINOT AFB      CLEAR     45  45  99 SW5       30.16S
GARRISON         N/A     50  47  89 E3        30.18F
WILLISTON      CLEAR     53  48  83 CALM      30.16F
DICKINSON      CLEAR     50  48  93 SE8       30.18F FOG
HETTINGER      CLEAR     53  49  86 SE8       30.20F FOG
$$

 *****  OTHER OBSERVATIONS NORTHEAST NORTH DAKOTA  *****

CITY           SKY/WX    TMP DP  RH WIND       PRES   REMARKS
WALHALLA       FAIR      46  46 100 MISG      30.17R
LANGDON        FAIR      43  43 100 S7        30.18S
CAVALIER       FAIR      46  46 100 CALM      30.16S
GRAFTON        FAIR      48  48 100 SW6       30.17S
CANDO          FAIR      46  45  93 SW3       30.19S
FORT TOTTEN      N/A     49  45  87 SE3       29.95S
ROLLA          FAIR      43  43 100 SW6       30.19S
RUGBY          NOT AVBL
 ***** THE ABOVE OBSERVATIONS ARE NON NWS ARE NOT QUALITY
        CONTROLLED AND MAY MIS-REPORT RAIN FOR SNOW...
$$

 *****  OTHER OBSERVATIONS SOUTHEAST NORTH DAKOTA *****

CITY           SKY/WX    TMP DP  RH WIND       PRES   REMARKS
COOPERSTOWN    NOT AVBL
VALLEY CITY    FAIR      45  45 100 S3        30.20R
OAKES            N/A     48  48 100 CALM      30.19S
GWINNER          N/A     50  46  87 N5        30.19S
SHEYENNE NWR     N/A     45  44  97 CALM      29.95S
BUFFALO        NOT AVBL
WYNDMERE         N/A     46  45  93 W2          N/A
 ***** THE ABOVE OBSERVATIONS ARE NON NWS ARE NOT QUALITY
       CONTROLLED AND MAY MIS-REPORT RAIN FOR SNOW...
$$

  *****  WEATHER ACROSS NORTHERN MINNESOTA  *****

CITY           SKY/WX    TMP DP  RH WIND       PRES   REMARKS
FLAG ISLAND    CLEAR     52  45  76 W13       30.11S
WARROAD        CLEAR     45  43  93 W3        30.15R
ROSEAU         CLEAR     48  45  87 W7        30.14S
HALLOCK        CLEAR     45  43  93 CALM      30.15S
THF RVR FALLS  CLEAR     48  45  87 CALM      30.16S
HALSTAD        NOT AVBL
FOSSTON        CLEAR     43  39  87 CALM      30.17R
BAUDETTE       MOCLDY    47  43  86 W6        30.12R
WASKISH        CLOUDY    54  48  82 NW5       30.13
CROOKSTON      CLEAR     46  45  93 NW3       30.18S
$$
  *****  WEATHER ACROSS CENTRAL AND WEST MINNESOTA  *****

CITY           SKY/WX    TMP DP  RH WIND       PRES   REMARKS
BEMIDJI        CLEAR     45  43  93 NW5       30.14R
PARK RAPIDS    CLEAR     49  45  86 NW3       30.14R
WADENA         PTCLDY    46  45  93 NW6       30.14S
DETROIT LAKES  CLEAR     48  45  87 CALM      30.18R
MOORHEAD       CLEAR     46  45  93 CALM      30.19R
FERGUS FALLS   CLEAR     48  45  87 N7        30.17S
ELBOW LAKE     FAIR      50  47  90 N8        30.16R
MORRIS MN      CLEAR     48  46  93 NW6       30.15R
STAPLES        CLEAR     48  45  87 NW6       30.14R
WHEATON        CLEAR     46  45  93 NW5       30.19R
$$
  *****  WEATHER ELSEWHERE ACROSS MINNESOTA  *****

CITY           SKY/WX    TMP DP  RH WIND       PRES   REMARKS
DULUTH         CLOUDY    55  42  61 N6        30.07R
INTRNTL FALLS  CLEAR     45  44  97 CALM      30.09S
ELY            CLOUDY    52  45  76 NW5       30.06S
CLOQUET        CLOUDY    54  43  66 N5        30.08R
BRAINERD       CLEAR     54  44  69 N6        30.12R
HIBBING        CLEAR     46  42  86 NW5       30.09R
ALEXANDRIA     CLEAR     53  46  77 N8        30.15S
SAINT CLOUD    CLEAR     51  47  86 NW5       30.11R
MINNEAPOLIS    CLEAR     56  49  77 NW8       30.08R
$$

  *****  WEATHER ACROSS SOUTH DAKOTA  *****

CITY           SKY/WX    TMP DP  RH WIND       PRES   REMARKS
SIOUX FALLS    CLEAR     54  50  86 CALM      30.15S
BROOKINGS      CLEAR     52  46  82 N7        30.17S
WATERTOWN      CLEAR     47  45  93 N5        30.17S
HURON          CLEAR     55  52  89 CALM      30.16S
SISSETON         N/A     48  45  89 NW6       30.17R
ABERDEEN       CLEAR     53  51  93 N5        30.19R
MITCHELL       PTCLDY    58  55  90 CALM      30.17R
PIERRE         CLEAR     56  53  90 E6        30.16F FOG
MOBRIDGE       CLEAR     58  53  84 E6        30.17F
RAPID CITY     MOCLDY    59  56  89 CALM      30.19F
$$

  *****  SOME WEATHER IN NEARBY STATES *****

CITY           SKY/WX    TMP DP  RH WIND       PRES   REMARKS
GLASGOW MT     CLEAR     55  47  74 E12       30.09F
GREAT FALLS MT PTCLDY    54  50  86 CALM      30.08F
CHEYENNE WY    CLOUDY    53  52  96 SE13      30.29F FOG
SCOTTSBLUFF NE CLOUDY    62  55  77 SE7       30.23F HAZE
OMAHA NE       CLEAR     59  53  80 N8        30.09R
DES MOINES IA  PTCLDY    64  53  67 N13       30.01R
DAVENPORT IA   CLOUDY    63  58  83 N13       29.90R HAZE
CHICAGO IL     CLOUDY    71  68  90 W8        29.84R
EAU CLAIRE WI  CLEAR     55  48  77 N6        30.02R
LA CROSSE WI   CLOUDY    61  57  87 NW12      29.98F FOG
$$

  *****  SOME NATIONAL WEATHER *****

CITY           SKY/WX    TMP DP  RH WIND       PRES   REMARKS
LA GUARDIA NY  CLOUDY    75  71  87 S7        30.04F
RALEIGH NC     PTCLDY    72  67  84 SE3       30.09S
ATLANTA GA     CLEAR     71  67  87 CALM      30.13F
NEW ORLEANS LA PTCLDY    81  76  84 SE3       30.10F
OKLAHOMA CITY  CLOUDY    71  71 100 S8        29.90F
ALBUQUERQUE NM TSTM      61  57  87 S6        30.26F FOG
SALT LAKE CITY MOCLDY    73  56  54 SE5       30.06S
LOS ANGELES CA CLOUDY    64  60  87 E3        30.00F
BOISE ID       CLOUDY    78  48  34 SE6       29.95F
SEATTLE WA     CLEAR     61  53  75 SW6       30.03R
$$

*** WEATHER ACROSS MANITOBA...SASKATCHEWAN AND ONTARIO ***
                ***ONTARIO***

CITY           SKY/WX    TMP DP  RH WIND       PRES   REMARKS
GERALDTON      CLOUDY    50  45  81 N9G17     29.94R
THUNDER BAY    CLOUDY    54  46  76 NW3       30.01R
SIOUX LOOKOUT  PTCLDY    45  45 100 NW5       30.06S
TORONTO        PTCLDY    68  57  68 SW7       29.90F
BIG TROUT LK   MOCLDY    54  46  76 W8        29.88F
PICKLE LAKE    NOT AVBL
DRYDEN         CLEAR     46  45  93 W6        30.07F
KENORA         CLEAR     52  39  62 W8        30.11R
$$
                *** MANITOBA***

CITY           SKY/WX    TMP DP  RH WIND       PRES   REMARKS
BRANDON        CLEAR     43  41  93 W5        30.14S
DAUPHIN        CLEAR     52  43  71 SW9       30.09F
ISLAND LAKE    PTCLDY    59  46  63 W9G17     29.96F
PILOT MOUND      N/A     43  41  93 S5          N/A
THE PAS        CLEAR     57  46  67 SW7       29.97F SMOKE
THOMPSON       CLEAR     55  45  67 SW7       29.85F SMOKE
WINNIPEG       CLEAR     46  41  81 W9        30.14S
LYNN LAKE      HAZE      61  45  55 SW10      29.76F VSB 1
CHURCHILL      MOCLDY    54  50  87 SW6       29.71F
GILLAM         CLEAR     54  50  87 SW12      29.80F
$$
                ***SASKATCHEWAN***

CITY           SKY/WX    TMP DP  RH WIND       PRES   REMARKS
ESTEVAN        PTCLDY    45  43  93 S6        30.15F
KINDERSLEY     PTCLDY    52  46  82 S5        30.03
LLOYDMINSTER   CLEAR     52  48  87 S10       30.01F
PRINCE ALBERT  MOCLDY    54  50  87 W5        29.99F
REGINA         PTCLDY    50  43  76 S9        30.11F



USA.gov is the U.S. government's official web portal to all federal, state and local government web resources and services.